Back to catalog

GEESAT 2-08

AliveCommunicationsLEO
NORAD 58912·PAYLOAD·🇨🇳 China

Launched Feb 2, 2024 from Xichang Satellite Launch Center

Loading…

Next Passes (next 24 hours)

TLE

FreshSource: Space-Track

Epoch: Sep 14, 2026, 13:36 UTC

1 58912U 24023H   26257.56673398  .00001103  00000-0  16014-3 0  9995
2 58912  49.9901 299.1373 0004167 324.3691  35.6969 14.83429602142182

Track GEESAT 2-08 in real time with AllMySat

Download on the App Store